When you browse on this site, cookies collect data to enhance your experience and personalize the content and advertising you see.
Visit our Privacy Policy to learn more. By continuing to use the site, you agree to this use of cookies and data.
  • In Österreich
  • Länderverzeichnis
  • Für 7 Tage
  • Wassertemperatur
  • Wetterkarte
  • News
  • Widgets
  • user-avatar
    Anmelden

    Stündliche Wetter Mixquiahuala

    Heute, 21 Oktober, Montag

    Zeit Temperatur Niederschläge Wind Luftdruck Luftfeuchtigkeit
    00:00 +18°C° 0 mm 1 m/S 600 mmHg 77%
    01:00 +16°C° 0 mm 1 m/S 599 mmHg 78%
    02:00 +16°C° 0 mm 1 m/S 599 mmHg 80%
    03:00 +16°C° 0 mm 1 m/S 599 mmHg 81%
    04:00 +15°C° 0 mm 1 m/S 599 mmHg 83%
    05:00 +15°C° 0 mm 1 m/S 599 mmHg 84%
    06:00 +18°C° 0 mm 1 m/S 600 mmHg 78%
    07:00 +19°C° 0 mm 1 m/S 601 mmHg 72%
    08:00 +21°C° 0 mm 1 m/S 602 mmHg 67%
    09:00 +23°C° 0 mm 1 m/S 602 mmHg 61%
    10:00 +24°C° 0 mm 1 m/S 603 mmHg 55%
    11:00 +26°C° 0 mm 1 m/S 603 mmHg 49%
    12:00 +26°C° 0.3 mm 1 m/S 603 mmHg 50%
    13:00 +26°C° 0.3 mm 2 m/S 602 mmHg 50%
    14:00 +26°C° 0.3 mm 3 m/S 601 mmHg 50%
    15:00 +25°C° 0.5 mm 2 m/S 601 mmHg 56%
    16:00 +23°C° 0.5 mm 2 m/S 601 mmHg 62%
    17:00 +21°C° 0.5 mm 2 m/S 601 mmHg 68%
    18:00 +20°C° 1 mm 2 m/S 601 mmHg 73%
    19:00 +20°C° 1 mm 1 m/S 601 mmHg 77%
    20:00 +19°C° 1 mm 1 m/S 602 mmHg 82%
    21:00 +19°C° 0.2 mm 1 m/S 602 mmHg 83%
    22:00 +18°C° 0.2 mm 1 m/S 602 mmHg 84%
    23:00 +18°C° 0.2 mm 1 m/S 602 mmHg 85%

    Morgen, 22 Oktober, Dienstag

    Zeit Temperatur Niederschläge Wind Luftdruck Luftfeuchtigkeit
    00:00 +18°C° 0.3 mm 1 m/S 601 mmHg 87%
    01:00 +16°C° 0.3 mm 1 m/S 601 mmHg 89%
    02:00 +16°C° 0.3 mm 1 m/S 601 mmHg 91%
    03:00 +16°C° 0.2 mm 1 m/S 601 mmHg 92%
    04:00 +16°C° 0.2 mm 1 m/S 601 mmHg 93%
    05:00 +16°C° 0.2 mm 1 m/S 601 mmHg 95%
    06:00 +16°C° 0 mm 1 m/S 602 mmHg 90%
    07:00 +18°C° 0 mm 1 m/S 603 mmHg 86%
    08:00 +19°C° 0 mm 1 m/S 603 mmHg 81%
    09:00 +19°C° 0.2 mm 2 m/S 603 mmHg 78%
    10:00 +20°C° 0.2 mm 3 m/S 603 mmHg 74%
    11:00 +21°C° 0.2 mm 3 m/S 603 mmHg 70%
    12:00 +21°C° 0.3 mm 4 m/S 603 mmHg 70%
    13:00 +21°C° 0.3 mm 4 m/S 603 mmHg 69%
    14:00 +21°C° 0.3 mm 5 m/S 602 mmHg 68%
    15:00 +20°C° 0.1 mm 4 m/S 602 mmHg 73%
    16:00 +19°C° 0.1 mm 4 m/S 602 mmHg 77%
    17:00 +17°C° 0.1 mm 4 m/S 602 mmHg 82%
    18:00 +17°C° 0.1 mm 3 m/S 602 mmHg 85%
    19:00 +16°C° 0.1 mm 2 m/S 602 mmHg 88%
    20:00 +16°C° 0.1 mm 2 m/S 603 mmHg 91%
    21:00 +15°C° 0 mm 1 m/S 602 mmHg 92%
    22:00 +15°C° 0 mm 1 m/S 602 mmHg 93%
    23:00 +13°C° 0 mm 0 m/S 602 mmHg 94%

    übermorgen, 23 Oktober, Mittwoch

    Zeit Temperatur Niederschläge Wind Luftdruck Luftfeuchtigkeit
    00:00 +14°C° 0.1 mm 0 m/S 602 mmHg 93%
    01:00 +14°C° 0.1 mm 0 m/S 602 mmHg 92%
    02:00 +14°C° 0.1 mm 0 m/S 602 mmHg 90%
    03:00 +15°C° 0.1 mm 1 m/S 602 mmHg 90%
    04:00 +15°C° 0.1 mm 1 m/S 602 mmHg 90%
    05:00 +15°C° 0.1 mm 1 m/S 602 mmHg 90%
    06:00 +16°C° 0.1 mm 1 m/S 602 mmHg 87%
    07:00 +18°C° 0.1 mm 1 m/S 603 mmHg 84%
    08:00 +18°C° 0.1 mm 1 m/S 603 mmHg 81%
    09:00 +18°C° 0 mm 2 m/S 603 mmHg 75%
    10:00 +19°C° 0 mm 2 m/S 603 mmHg 70%
    11:00 +20°C° 0 mm 2 m/S 603 mmHg 65%
    12:00 +21°C° 0 mm 3 m/S 602 mmHg 64%
    13:00 +21°C° 0 mm 3 m/S 602 mmHg 63%
    14:00 +22°C° 0 mm 4 m/S 601 mmHg 61%
    15:00 +20°C° 0.1 mm 4 m/S 601 mmHg 67%
    16:00 +19°C° 0.1 mm 3 m/S 600 mmHg 72%
    17:00 +18°C° 0.1 mm 3 m/S 600 mmHg 77%
    18:00 +17°C° 0 mm 3 m/S 600 mmHg 82%
    19:00 +16°C° 0 mm 2 m/S 601 mmHg 87%
    20:00 +15°C° 0 mm 1 m/S 601 mmHg 93%
    21:00 +15°C° 0 mm 1 m/S 601 mmHg 94%
    22:00 +14°C° 0 mm 1 m/S 600 mmHg 95%
    23:00 +13°C° 0 mm 0 m/S 600 mmHg 96%

    24 Oktober, Donnerstag

    Zeit Temperatur Niederschläge Wind Luftdruck Luftfeuchtigkeit
    00:00 +13°C° 0 mm 0 m/S 600 mmHg 95%
    01:00 +13°C° 0 mm 0 m/S 599 mmHg 95%
    02:00 +13°C° 0 mm 0 m/S 599 mmHg 94%
    03:00 +13°C° 0 mm 0 m/S 599 mmHg 93%
    04:00 +13°C° 0 mm 0 m/S 599 mmHg 92%
    05:00 +12°C° 0 mm 0 m/S 599 mmHg 91%
    06:00 +13°C° 0 mm 0 m/S 600 mmHg 86%
    07:00 +14°C° 0 mm 0 m/S 600 mmHg 82%
    08:00 +16°C° 0 mm 0 m/S 601 mmHg 77%
    09:00 +19°C° 0 mm 1 m/S 601 mmHg 69%
    10:00 +21°C° 0 mm 1 m/S 601 mmHg 62%
    11:00 +23°C° 0 mm 2 m/S 602 mmHg 55%
    12:00 +22°C° 0 mm 3 m/S 601 mmHg 53%
    13:00 +24°C° 0 mm 3 m/S 601 mmHg 52%
    14:00 +23°C° 0 mm 4 m/S 601 mmHg 50%
    15:00 +22°C° 0.2 mm 4 m/S 600 mmHg 59%
    16:00 +20°C° 0.2 mm 3 m/S 600 mmHg 67%
    17:00 +19°C° 0.2 mm 3 m/S 599 mmHg 75%
    18:00 +18°C° 0.1 mm 2 m/S 600 mmHg 81%
    19:00 +17°C° 0.1 mm 2 m/S 600 mmHg 86%
    20:00 +16°C° 0.1 mm 1 m/S 600 mmHg 92%
    21:00 +16°C° 0 mm 1 m/S 600 mmHg 93%
    22:00 +16°C° 0 mm 1 m/S 600 mmHg 95%
    23:00 +15°C° 0 mm 1 m/S 600 mmHg 96%

    25 Oktober, Freitag

    Zeit Temperatur Niederschläge Wind Luftdruck Luftfeuchtigkeit
    00:00 +15°C° 0 mm 1 m/S 600 mmHg 96%
    01:00 +15°C° 0 mm 1 m/S 600 mmHg 95%
    02:00 +15°C° 0 mm 1 m/S 600 mmHg 95%
    03:00 +15°C° 0.1 mm 1 m/S 600 mmHg 94%
    04:00 +15°C° 0.1 mm 1 m/S 600 mmHg 93%
    05:00 +15°C° 0.1 mm 1 m/S 600 mmHg 92%
    06:00 +15°C° 0.1 mm 1 m/S 601 mmHg 90%
    07:00 +15°C° 0.1 mm 1 m/S 601 mmHg 89%
    08:00 +16°C° 0.1 mm 1 m/S 602 mmHg 88%
    09:00 +16°C° 0.4 mm 1 m/S 602 mmHg 88%
    10:00 +16°C° 0.4 mm 2 m/S 601 mmHg 88%
    11:00 +16°C° 0.4 mm 2 m/S 601 mmHg 88%
    12:00 +16°C° 0.2 mm 3 m/S 601 mmHg 87%
    13:00 +14°C° 0.2 mm 3 m/S 600 mmHg 85%
    14:00 +14°C° 0.2 mm 4 m/S 600 mmHg 83%
    15:00 +14°C° 0 mm 4 m/S 600 mmHg 85%
    16:00 +13°C° 0 mm 3 m/S 600 mmHg 87%
    17:00 +12°C° 0 mm 3 m/S 601 mmHg 88%
    18:00 +12°C° 0 mm 3 m/S 601 mmHg 89%
    19:00 +13°C° 0 mm 2 m/S 602 mmHg 90%
    20:00 +13°C° 0 mm 2 m/S 602 mmHg 90%
    21:00 +13°C° 0 mm 2 m/S 602 mmHg 90%
    22:00 +13°C° 0 mm 2 m/S 602 mmHg 90%
    23:00 +13°C° 0 mm 2 m/S 602 mmHg 90%

    26 Oktober, Samstag

    Zeit Temperatur Niederschläge Wind Luftdruck Luftfeuchtigkeit
    00:00 +13°C° 0 mm 2 m/S 602 mmHg 90%
    01:00 +13°C° 0 mm 1 m/S 602 mmHg 90%
    02:00 +13°C° 0 mm 1 m/S 601 mmHg 90%
    03:00 +13°C° 0 mm 1 m/S 601 mmHg 90%
    04:00 +12°C° 0 mm 1 m/S 601 mmHg 90%
    05:00 +12°C° 0 mm 1 m/S 601 mmHg 90%
    06:00 +13°C° 0 mm 2 m/S 602 mmHg 88%
    07:00 +13°C° 0 mm 2 m/S 602 mmHg 86%
    08:00 +13°C° 0 mm 2 m/S 602 mmHg 84%
    09:00 +14°C° 0 mm 2 m/S 602 mmHg 80%
    10:00 +15°C° 0 mm 2 m/S 602 mmHg 76%
    11:00 +16°C° 0 mm 2 m/S 602 mmHg 72%
    12:00 +16°C° 0 mm 2 m/S 601 mmHg 70%
    13:00 +17°C° 0 mm 3 m/S 601 mmHg 69%
    14:00 +18°C° 0 mm 3 m/S 601 mmHg 67%
    15:00 +17°C° 0 mm 3 m/S 600 mmHg 70%
    16:00 +16°C° 0 mm 3 m/S 600 mmHg 74%
    17:00 +15°C° 0 mm 2 m/S 600 mmHg 77%
    18:00 +14°C° 0.3 mm 2 m/S 601 mmHg 79%
    19:00 +14°C° 0.3 mm 1 m/S 601 mmHg 82%
    20:00 +12°C° 0.3 mm 0 m/S 601 mmHg 84%
    21:00 +12°C° 0.4 mm 0 m/S 601 mmHg 85%
    22:00 +13°C° 0.4 mm 1 m/S 601 mmHg 87%
    23:00 +14°C° 0.4 mm 1 m/S 601 mmHg 88%

    27 Oktober, Sonntag

    Zeit Temperatur Niederschläge Wind Luftdruck Luftfeuchtigkeit
    00:00 +14°C° 0 mm 1 m/S 601 mmHg 89%
    01:00 +13°C° 0 mm 1 m/S 600 mmHg 90%
    02:00 +12°C° 0 mm 0 m/S 600 mmHg 91%
    03:00 +12°C° 0 mm 0 m/S 600 mmHg 92%
    04:00 +11°C° 0 mm 0 m/S 599 mmHg 92%
    05:00 +11°C° 0 mm 0 m/S 599 mmHg 93%
    06:00 +13°C° 0 mm 0 m/S 600 mmHg 86%
    07:00 +15°C° 0 mm 0 m/S 601 mmHg 79%
    08:00 +16°C° 0 mm 0 m/S 602 mmHg 73%
    09:00 +20°C° 0 mm 1 m/S 602 mmHg 66%
    10:00 +21°C° 0 mm 1 m/S 603 mmHg 60%
    11:00 +23°C° 0 mm 2 m/S 603 mmHg 54%
    12:00 +22°C° 0.1 mm 3 m/S 603 mmHg 54%
    13:00 +24°C° 0.1 mm 3 m/S 602 mmHg 54%
    14:00 +23°C° 0.1 mm 4 m/S 602 mmHg 54%
    15:00 +22°C° 0.2 mm 4 m/S 602 mmHg 59%
    16:00 +20°C° 0.2 mm 3 m/S 601 mmHg 65%
    17:00 +19°C° 0.2 mm 3 m/S 601 mmHg 71%
    18:00 +18°C° 0 mm 2 m/S 601 mmHg 76%
    19:00 +18°C° 0 mm 1 m/S 601 mmHg 81%
    20:00 +16°C° 0 mm 1 m/S 601 mmHg 86%
    21:00 +14°C° 0 mm 0 m/S 601 mmHg 87%
    22:00 +14°C° 0 mm 0 m/S 601 mmHg 87%
    23:00 +13°C° 0 mm 0 m/S 601 mmHg 88%
    Mehr zeigen